#timestamp,LO_Frequency,Hit,StdDev 
1641286815.9,286047001.2,N
1641286835.7,286047001.0,N
1641286855.5,286047000.0,N
1641286875.4,286047001.2,N
1641286895.2,286047001.2,N
1641286915.0,286046998.2,N
1641286915.9,286046998.2,N
1641286935.8,286047001.1,N
1641286955.6,286047000.6,N
1641286975.5,286047001.1,N
1641286995.3,286046998.1,N
1641287015.1,286046998.5,N
1641287035.9,286047001.1,N
1641287055.7,286046998.7,N
1641287075.6,286046998.9,N
1641287095.4,286046998.4,N
1641287115.2,286047001.1,N
1641287135.1,286046998.9,N
1641287136.0,286046998.9,N
1641287155.8,286046999.5,N
1641287175.6,286046996.9,N
1641287195.5,286046998.1,N
1641287215.3,286046998.4,N
1641287235.2,286046998.5,N
1641287255.9,286046999.3,N
1641287275.7,286046999.4,N
1641287295.6,286046995.4,Y
1641287315.4,286046995.4,P
1641287335.3,286046995.6,N
1641287355.1,286046995.7,N
1641287356.0,286046995.7,N
1641287375.8,286046997.7,N
1641287395.7,286046999.6,N
1641287415.5,286046998.8,N
1641287435.4,286046999.3,N
1641287455.2,286046999.4,N
1641287475.0,286046998.2,N
1641287475.9,286046998.2,N
1641287495.8,286046998.5,N
1641287515.6,286046998.4,N
1641287535.4,286046998.1,N
1641287555.3,286046999.0,N
1641287575.1,286046999.4,N
1641287595.9,286046998.5,N
1641287615.7,286046999.4,N
1641287635.5,286046999.5,N
1641287655.4,286046999.0,N
1641287675.2,286046999.5,N
1641287695.0,286046996.7,N
1641287695.9,286046996.7,N
1641287715.8,286046996.5,N
1641287735.6,286046998.7,N
1641287755.5,286046999.1,N
1641287775.3,286046996.8,N
1641287795.1,286046996.7,N
1641287815.9,286046996.5,N
1641287835.7,286046997.6,N
1641287855.5,286046997.6,N
1641287875.4,286046996.6,N
1641287895.2,286046996.6,N
1641287915.1,286046999.4,N
1641287916.0,286046999.4,N
1641287935.8,286046998.7,N
1641287955.6,286046998.8,N
1641287975.5,286046998.9,N
1641287995.3,286046999.3,N
1641288015.1,286046997.3,N
1641288035.9,286046996.8,N
1641288055.7,286046996.6,Y
1641288075.6,286046998.4,P
1641288095.4,286046998.8,P
1641288115.2,286047001.2,P
1641288135.1,286047000.5,N
1641288136.0,286047000.5,N
1641288155.8,286047000.5,N
1641288175.7,286047000.8,N
1641288195.5,286046998.1,N
1641288215.3,286046998.6,N
1641288235.2,286046998.3,N
1641288255.9,286047000.5,N
1641288275.7,286047002.2,N
1641288295.6,286047001.6,N
1641288315.4,286047001.6,N
1641288335.2,286047002.7,N
1641288355.1,286047001.5,N
1641288356.0,286047001.5,N
1641288375.8,286047002.8,N
1641288395.7,286047000.7,N
1641288415.5,286047000.4,N
1641288435.3,286047000.1,N
1641288455.2,286047000.3,N
1641288475.0,286047004.4,Y
1641288475.9,286047004.4,P
1641288495.8,286046999.7,N
1641288515.6,286047000.9,N
1641288535.4,286047000.5,N
1641288555.3,286047001.1,N
1641288575.1,286047002.6,N
1641288595.8,286047002.6,N
1641288615.7,286047002.2,N
1641288635.5,286047002.1,N
1641288655.4,286047002.4,N
1641288675.2,286047002.6,N
1641288695.0,286047002.0,N
1641288695.9,286047002.0,N
1641288715.8,286047001.5,N
1641288735.6,286047004.3,Y
1641288755.4,286047001.6,P
1641288775.3,286047000.3,N
1641288795.1,286047000.4,N
1641288815.9,286046999.8,N
1641288835.7,286046999.7,N
1641288855.5,286047000.1,N
1641288875.4,286047000.5,N
1641288895.2,286046998.5,N
1641288915.1,286046998.9,N
1641288916.0,286046998.9,N
1641288935.8,286046998.8,N
1641288955.6,286046996.9,Y
1641288975.5,286046996.9,P
1641288995.3,286046998.0,N
1641289015.1,286046997.3,N
1641289035.9,286046997.1,N
1641289055.7,286046998.1,N
1641289075.6,286046998.7,N
1641289095.4,286047001.2,N
1641289115.2,286046998.8,N
1641289135.1,286046996.8,N
1641289136.0,286046996.8,N
1641289155.8,286046997.7,N
1641289175.7,286046996.9,N
1641289195.5,286046999.3,N
1641289215.3,286046996.7,N
1641289235.2,286046999.5,N
1641289255.0,286046997.0,N
1641289255.9,286046997.0,N
1641289275.7,286046999.5,N
1641289295.6,286046996.9,N
1641289315.4,286046995.1,Y
1641289335.3,286046999.2,P
1641289355.1,286047001.1,N
1641289356.0,286047001.1,N
1641289375.8,286046998.2,N
1641289395.7,286047000.0,N
1641289415.5,286046998.1,N
1641289435.4,286047000.3,N
1641289455.2,286046999.0,N
1641289475.0,286047000.9,N
1641289475.9,286047000.9,N
1641289495.8,286047001.1,N
1641289515.6,286046998.4,N
1641289535.4,286046999.3,N
1641289555.3,286046998.4,N
1641289575.1,286046999.4,N
1641289595.9,286046999.3,N
1641289615.7,286047000.5,N
1641289635.5,286047000.0,N
1641289655.4,286047000.0,N
1641289675.2,286047000.4,N
1641289695.1,286047002.6,N
1641289696.0,286047002.6,N
1641289715.8,286047004.2,Y
1641289735.6,286047004.0,P
1641289755.5,286047001.6,N
1641289775.3,286047003.7,N
1641289795.1,286047003.1,N
1641289815.9,286047003.4,N
1641289835.2,286047003.4,N
1641289855.0,286047004.0,N
1641289855.9,286047004.0,Y
1641289875.7,286046998.9,P
1641289895.6,286047001.1,N
1641289915.4,286046998.1,N
1641289935.3,286046998.3,N
1641289955.1,286046999.2,N
1641289975.8,286047000.5,N
1641289995.7,286047000.1,N
1641290015.5,286047000.8,N
1641290035.4,286046998.4,N
1641290055.2,286047001.0,N
1641290075.0,286047000.7,N
1641290075.9,286047000.7,N
1641290095.8,286046999.4,N
1641290115.6,286046999.5,N
1641290135.5,286046999.0,N
1641290155.3,286046998.3,N
1641290175.1,286046998.2,N
1641290195.9,286046998.7,N
1641290215.7,286046998.4,N
1641290235.6,286046998.6,N
1641290255.4,286046998.4,N
1641290275.2,286046996.9,N
1641290295.1,286046999.5,N
1641290296.0,286046999.5,N
1641290315.8,286047001.2,N
1641290335.6,286046997.1,N
1641290355.5,286046998.1,N
1641290405.4,286046996.5,E
